Home   Weather   Burlington   Past weeks

Flag for Canada Past Weather in Burlington, Ontario, Canada — Yesterday and Last 2 Weeks

Now
37 °F

Chilly.


Feels Like: 28 °F
Forecast: 32 / 38 °F
Wind: 16 mph from Southwest

Location: Burlington Piers

Current Time: Dec 7, 2016 at 1:31:59 pm

Latest Report: Dec 7, 2016 at 1:00 pm


Visibility: N/A

Pressure: 29.96 "Hg

Humidity: 64%

Dew Point: 26 °F

Location of BurlingtonLocation

Past Weather in Burlington — Graph

°F

Burlington Temperature Yesterday

Maximum temperature yesterday: 42 °F (at 5:00 pm)
Minimum temperature yesterday: 35 °F (at 7:00 am)
Average temperature yesterday: 38 °F

High & Low Weather Summary for the Past Weeks

 TemperatureHumidityPressure
High57 °F (Nov 29, 2:00 pm)100% (Nov 25, 2:00 am)30.38 "Hg (Nov 25, 2:00 am)
Low28 °F (Nov 23, 7:00 am)50% (Nov 22, 3:00 pm)29.44 "Hg (Nov 30, 10:00 pm)
Average41 °F78%30.00 "Hg
* Reported Nov 22 12:00 pm — Dec 7 12:00 pm, Burlington, Weather by CustomWeather, © 2016

Note: Actual official high and low records may vary slightly from our data, if they occured in-between our weather recording intervals... More about our weather records

Advertising

Burlington Weather History for the Previous 24 Hours

Scroll right to see more
 ConditionsComfort  
Time TempWeatherWind HumidityBarometerVisibility
12:00 pm
Wed, Dec 7
37 °FChilly.13 mph60%29.97 "HgN/A
11:00 am36 °FChilly.12 mph60%29.98 "HgN/A
10:00 am36 °FChilly.12 mph59%29.98 "HgN/A
9:00 am36 °FChilly.12 mph63%29.96 "HgN/A
8:00 am37 °FChilly.10 mph62%29.94 "HgN/A
7:00 am38 °FChilly.9 mph67%29.91 "HgN/A
6:00 am39 °FChilly.12 mph67%29.88 "HgN/A
5:00 am40 °FChilly.9 mph72%29.86 "HgN/A
4:00 am40 °FChilly.8 mph85%29.83 "HgN/A
3:00 am38 °FChilly.7 mph91%29.80 "HgN/A
2:00 am38 °FChilly.3 mph91%29.77 "HgN/A
1:00 am37 °FChilly.1 mph93%29.75 "HgN/A
12:00 am37 °FChilly.No wind92%29.76 "HgN/A
11:00 pm
Tue, Dec 6
36 °FChilly.3 mph92%29.76 "HgN/A
10:00 pm36 °FChilly.9 mph91%29.76 "HgN/A
9:00 pm37 °FChilly.17 mph90%29.76 "HgN/A
7:00 pm38 °FChilly.21 mph87%29.79 "HgN/A
6:00 pm37 °FChilly.13 mph80%29.82 "HgN/A
5:00 pm42 °FQuite cool.17 mph66%29.81 "HgN/A
4:00 pm41 °FQuite cool.16 mph75%29.81 "HgN/A
2:00 pm41 °FQuite cool.17 mph74%29.83 "HgN/A
Weather by CustomWeather, © 2016

See weather overviewHow to use our weather pages